Volver al catálogo

COSMOS 1250

ActivoMilitarLEO
NORAD 12320·PAYLOAD·🇷🇺 Russia

Lanzado Mar 6, 1981 desde Plesetsk Cosmodrome

Loading…

Próximos Pases (próximas 24 horas)

TLE

ActualizadoSource: Space-Track

Época: Sep 14, 2026, 08:57 UTC

1 12320U 81022A   26257.37298412 -.00000020  00000-0 -19263-4 0  9998
2 12320  74.0274 230.2698 0053155 280.8630 234.0388 12.58283483 91125

Sigue COSMOS 1250 en tiempo real con AllMySat

Download on the App Store